Wind_Speed
68 68 65 63 62 58 57 57 57 56 54 54 54 53 51 48 47 46 44 44 45 45 46 46 44 42 40 39 39 37 38 42 45 47 47 50 55 56 54 53 51 51 50 49 49 49 49 48 46 45 43 41 39 38 37 36 35 34 34 33 31 31 30 28 27 25 24 22 19 17 16 16 15 15 15 15 15 15 14 14 14 14 13 13 12 12 11 11
67 65 63 61 61 58 57 57 58 57 55 55 54 53 51 47 46 45 43 44 44 45 46 46 44 42 39 37 36 36 40 43 44 45 45 49 56 56 54 53 51 52 52 51 50 50 49 48 47 45 43 42 40 39 38 37 36 35 34 33 33 32 30 29 27 25 24 23 20 18 17 17 16 16 16 15 15 15 14 14 14 14 14 14 14 13 13 11
66 62 59 59 61 59 57 58 58 58 55 55 54 52 51 47 46 45 43 43 44 45 46 45 43 41 39 37 35 35 39 43 42 42 45 50 54 55 56 55 52 53 54 52 51 51 51 50 48 46 44 42 41 40 38 37 36 35 34 35 34 32 30 29 28 27 25 24 21 19 19 18 18 17 17 16 16 15 14 14 14 13 14 14 14 14 13 13
63 59 58 58 61 60 58 59 58 58 56 55 54 52 50 47 45 45 43 43 44 45 45 45 44 42 40 38 37 36 36 38 40 39 44 51 54 54 55 54 53 54 55 54 53 53 52 52 50 48 45 43 42 41 39 38 37 36 37 37 34 32 31 30 29 28 26 25 23 21 20 20 19 18 18 17 17 16 15 15 14 13 13 13 14 14 13 13
60 57 58 59 60 60 59 59 59 58 56 55 54 52 50 47 45 45 43 43 44 44 45 45 45 44 42 40 40 40 37 36 37 38 41 47 52 53 52 52 54 55 56 56 54 54 53 53 51 48 47 46 44 43 41 40 38 37 38 36 34 33 32 30 29 28 27 26 24 22 21 21 20 19 18 18 18 17 16 16 15 14 14 14 14 14 13 13
58 57 59 60 60 60 60 59 59 59 57 56 54 52 50 47 45 44 43 43 43 44 44 45 45 44 42 41 40 42 42 39 37 38 39 41 47 51 51 51 53 56 58 57 56 55 54 53 51 48 47 47 45 43 41 39 38 38 38 36 35 34 32 31 30 29 28 27 25 23 22 21 21 20 19 19 18 18 17 17 16 15 15 15 15 15 14 13
58 60 61 61 61 61 60 60 60 59 58 57 54 51 49 46 45 44 43 42 42 43 43 44 43 41 40 39 38 41 43 40 37 38 39 39 42 48 51 51 53 57 59 57 56 55 54 53 50 48 47 46 45 43 41 39 39 40 39 38 37 35 33 32 30 29 29 28 26 25 23 22 21 21 20 19 19 18 18 17 16 15 14 14 14 14 14 13
61 63 62 62 61 61 61 61 61 60 58 57 54 50 47 45 44 43 42 42 42 42 42 41 40 39 39 39 40 42 41 38 37 37 37 39 42 45 49 51 53 58 60 57 55 54 53 52 49 47 47 46 44 42 41 40 40 41 40 39 37 35 34 33 31 31 30 28 27 26 25 23 22 21 21 20 19 19 19 18 18 17 15 15 14 13 13 13
64 64 62 62 62 62 62 61 61 59 58 56 53 50 46 44 44 43 42 42 41 42 41 38 37 39 40 41 43 43 40 38 37 36 36 38 43 44 46 49 52 59 61 57 55 54 53 51 48 47 47 46 44 42 41 40 41 41 40 39 37 36 35 33 32 31 30 29 28 27 26 24 23 22 21 21 21 20 20 19 19 18 17 16 14 14 14 13
65 64 63 63 63 63 62 61 60 58 57 56 53 49 46 44 44 43 42 42 40 41 41 37 38 41 42 43 44 42 40 40 38 36 35 37 42 45 45 47 52 60 61 57 55 54 53 50 48 47 46 45 44 44 42 42 42 41 40 39 38 36 35 34 33 32 31 30 29 28 27 26 24 23 22 22 22 21 20 20 19 19 18 17 16 15 14 14
65 64 63 64 63 63 62 60 59 58 58 56 52 48 45 44 44 43 42 42 41 42 41 39 40 41 43 45 43 41 41 42 39 37 36 36 40 44 46 47 53 60 61 58 55 53 51 50 48 47 47 47 46 46 45 44 42 41 41 40 39 37 36 35 34 33 32 31 29 28 28 26 25 23 23 23 22 21 20 20 19 19 19 18 17 16 15 15
66 64 64 64 64 63 62 60 59 58 58 56 52 47 45 44 43 43 43 42 42 43 42 42 41 41 44 45 43 42 42 42 39 38 37 37 39 43 47 49 54 60 62 58 55 52 51 51 50 49 49 49 48 48 47 45 43 42 42 42 40 39 38 37 35 34 33 31 30 29 27 26 25 25 25 23 22 21 20 20 19 19 19 19 18 17 17 16
66 65 65 65 64 64 62 60 59 58 57 55 51 47 45 44 44 43 42 42 42 42 42 43 42 41 43 43 42 42 42 41 39 37 37 38 40 43 47 52 56 61 62 58 55 54 53 53 52 50 50 49 49 49 47 45 43 43 44 43 41 41 40 38 36 35 33 32 30 29 28 26 26 26 25 24 22 22 22 21 20 19 19 18 18 18 17 17
66 66 65 65 64 63 62 60 60 58 57 54 50 47 45 45 44 43 43 42 41 40 41 41 42 43 43 41 40 41 42 41 39 37 37 38 41 44 49 55 58 61 61 58 55 54 55 54 53 51 51 50 49 49 47 45 44 44 45 44 43 42 41 38 37 36 34 33 31 30 29 28 28 26 25 24 24 24 23 22 21 20 19 19 18 18 18 18
67 66 65 65 64 64 62 60 59 58 57 53 49 47 46 46 45 44 43 43 42 40 40 41 42 43 42 40 40 41 41 40 39 38 37 39 42 46 52 56 58 61 60 57 55 54 55 55 54 53 51 51 50 49 48 46 47 47 46 45 45 43 40 38 37 36 35 33 32 31 29 29 28 26 25 25 24 24 24 23 22 21 20 20 19 19 19 19
67 66 66 66 64 64 62 60 59 58 56 52 50 48 47 47 46 46 45 44 43 41 41 41 41 41 40 39 39 40 40 40 39 38 38 41 44 48 53 57 58 59 59 57 55 55 55 55 55 54 52 51 51 50 49 48 48 48 46 46 44 42 40 38 37 36 34 33 33 31 30 29 28 26 26 25 25 24 23 22 22 21 21 20 20 20 20 20
67 66 66 66 64 64 62 61 59 57 54 52 51 50 49 49 49 48 47 46 45 43 42 41 40 40 39 38 38 39 38 39 39 39 40 43 47 51 55 57 57 58 58 57 56 56 56 56 55 54 53 52 52 52 51 50 50 49 48 47 44 41 39 38 37 36 35 34 33 31 30 29 28 27 26 26 25 25 23 23 22 22 21 20 20 20 20 21
67 66 66 66 65 64 63 61 58 56 54 53 52 52 52 52 51 50 49 48 47 46 44 42 41 40 39 38 38 38 38 39 39 40 42 46 50 52 55 57 56 56 57 57 57 57 57 56 55 55 55 54 54 53 52 52 51 49 48 45 40 38 37 37 37 36 34 34 33 32 29 28 29 28 27 26 26 25 24 23 23 23 22 21 21 21 21 21
67 67 66 66 66 65 63 61 58 57 55 54 54 54 55 54 53 52 50 49 47 46 44 42 41 40 39 38 38 39 40 40 40 41 43 47 51 53 54 56 56 55 56 57 57 58 58 57 57 57 57 56 55 54 53 52 49 45 43 39 36 36 37 37 37 35 35 35 34 33 30 29 30 28 27 27 26 25 24 23 23 23 23 22 22 22 22 22
67 67 67 67 66 65 63 62 59 57 56 55 55 56 55 55 53 52 49 46 44 41 40 38 38 38 38 38 39 41 42 42 41 43 46 49 52 53 54 56 57 57 57 57 57 57 57 57 58 57 55 55 54 53 53 51 46 42 41 40 39 39 40 40 38 37 38 37 35 34 32 30 30 28 27 27 26 25 24 24 24 24 24 24 23 23 23 23
67 67 67 67 66 65 63 61 59 57 56 54 54 53 51 50 48 46 44 43 42 40 39 38 38 38 37 36 37 39 41 41 42 45 48 51 53 52 53 55 57 58 58 58 58 57 57 58 57 55 54 54 53 52 51 48 45 43 44 44 43 43 43 42 40 40 39 38 36 35 33 31 30 29 28 27 25 24 24 24 24 24 25 25 24 25 24 24
67 66 67 67 66 65 62 60 58 56 55 54 53 50 48 46 44 41 41 42 42 42 42 41 40 39 38 37 37 39 40 41 43 46 49 52 54 53 53 54 56 57 58 59 58 57 58 57 56 55 55 54 52 50 50 48 46 46 46 47 47 46 45 43 42 41 39 38 37 35 33 31 30 31 29 26 24 23 24 24 24 25 25 25 26 26 26 26
67 67 67 67 66 64 62 60 58 56 54 53 52 50 48 45 43 42 42 41 42 44 45 45 42 41 41 39 38 40 41 41 43 47 50 52 54 53 52 53 55 56 57 57 57 57 59 57 56 56 55 52 50 50 50 49 48 48 48 48 48 47 45 43 42 41 39 39 38 36 35 33 32 32 30 27 25 24 25 25 25 25 25 26 26 26 27 27
67 67 67 67 66 64 61 59 57 55 53 53 51 50 48 45 44 45 44 43 43 44 45 44 43 43 43 42 41 42 43 43 44 47 49 51 52 52 51 51 53 55 55 54 54 55 57 57 56 54 51 50 51 51 50 49 49 49 49 48 49 47 45 45 44 42 42 41 39 37 36 35 33 32 31 30 27 26 26 26 26 26 26 26 26 26 27 27
67 67 67 67 66 63 61 59 57 55 53 53 52 50 49 47 46 46 45 45 46 47 46 44 42 42 44 43 42 44 44 44 46 48 48 49 50 49 49 50 51 52 52 52 52 54 55 54 52 49 49 50 50 50 50 49 49 49 49 49 49 48 47 47 46 44 44 43 41 39 38 36 34 33 33 31 29 28 27 27 27 26 26 26 26 27 27 27
67 68 67 67 66 63 62 59 57 55 54 53 52 51 50 49 48 47 46 47 49 50 48 46 44 43 43 43 43 44 46 46 47 48 48 49 48 47 47 48 49 50 51 51 51 54 54 52 49 48 49 50 50 50 50 49 49 49 49 50 50 49 48 48 46 45 45 45 43 41 40 39 37 36 34 32 31 29 28 28 27 26 26 26 26 27 27 28
67 67 67 66 65 63 61 59 57 55 54 53 52 52 51 50 49 48 49 51 52 52 50 48 47 45 44 45 44 46 49 49 49 50 49 49 49 47 47 47 48 50 50 50 51 53 52 50 48 49 49 50 51 51 50 48 49 51 50 49 49 49 48 48 47 47 47 47 45 43 42 42 40 37 34 32 32 31 30 28 27 26 26 26 27 27 28 28
66 66 66 65 63 62 59 57 55 54 53 53 52 52 51 51 51 50 52 55 55 53 52 50 47 46 46 47 46 47 50 49 50 52 52 51 51 49 49 48 48 49 49 49 51 51 50 48 48 48 49 50 50 50 48 48 49 50 49 47 47 48 48 48 48 49 48 48 47 45 44 44 42 38 35 33 33 32 31 29 27 26 26 27 28 28 29 29
66 65 65 64 63 61 58 54 53 52 53 53 53 53 52 52 52 51 53 56 55 53 51 50 48 47 47 48 48 48 50 51 51 52 52 52 53 51 50 50 49 49 49 49 50 50 48 46 46 46 47 48 48 48 47 46 48 49 47 47 47 48 49 49 49 49 49 49 50 48 45 45 44 41 37 34 33 32 31 30 28 27 27 27 28 29 30 30
65 65 64 64 63 60 56 54 53 53 53 54 54 54 53 54 53 53 55 56 55 53 52 51 49 48 48 49 48 48 52 55 53 52 54 53 53 53 52 50 49 49 50 50 51 50 47 45 45 45 47 47 47 47 47 47 49 49 49 49 49 49 50 50 50 50 51 52 52 50 47 46 46 43 40 36 32 32 32 31 30 29 28 28 29 29 31 31
65 64 64 64 61 57 54 54 55 54 54 54 54 55 55 55 54 56 57 55 53 53 52 51 50 49 48 48 49 49 51 56 56 55 56 55 54 55 54 53 52 51 52 53 54 53 49 47 47 46 47 47 47 48 49 50 51 51 50 50 50 50 50 51 52 52 53 54 53 51 48 47 48 45 41 37 32 32 33 33 32 31 29 29 29 30 31 32
64 64 64 63 59 55 53 54 55 55 55 55 54 55 56 56 57 57 56 53 53 53 51 49 48 47 47 48 50 49 50 55 58 58 57 56 55 55 55 55 55 55 56 57 57 56 52 50 49 48 48 48 48 50 50 51 52 52 51 51 50 51 51 52 54 54 55 55 54 50 48 48 49 45 41 38 35 34 34 34 33 32 31 30 31 31 32 33
64 64 64 62 57 54 54 54 55 55 55 56 56 56 56 57 58 55 53 52 52 50 47 46 46 46 47 49 51 51 50 53 57 59 59 57 56 55 54 54 54 54 55 56 57 56 55 53 52 51 50 50 49 50 51 51 52 52 52 51 50 51 53 53 53 53 53 54 52 49 48 48 48 46 42 40 38 36 35 35 35 34 33 33 33 33 34 34
64 65 64 62 58 56 56 55 55 54 54 55 56 56 57 57 54 51 51 51 48 47 47 47 47 47 48 50 50 50 51 52 56 59 60 59 59 57 56 55 53 52 53 52 53 54 54 54 53 51 51 50 50 50 50 49 49 49 49 49 49 50 51 50 50 51 50 51 50 49 50 49 49 48 44 41 40 39 37 36 36 35 35 35 35 35 35 35
65 65 65 63 61 59 58 57 56 54 54 55 55 56 57 57 53 52 51 49 47 47 46 46 47 48 49 50 50 50 50 52 54 58 60 60 60 59 58 57 55 54 54 53 53 53 53 53 53 51 50 49 49 49 48 48 48 49 49 49 49 49 49 49 49 50 49 50 51 51 51 50 48 48 45 42 41 40 39 38 36 36 37 37 37 37 37 37
66 66 66 64 61 60 59 58 57 55 54 54 55 56 56 54 52 52 51 48 47 47 46 47 48 48 49 49 50 51 50 50 53 56 58 59 61 60 58 57 55 55 55 54 54 54 53 54 54 53 52 51 50 50 49 49 49 49 49 50 49 49 49 48 48 50 49 50 52 52 51 49 48 48 47 44 42 40 39 39 38 37 38 38 38 38 38 38
66 67 67 65 62 61 60 59 58 57 56 55 56 56 54 53 52 52 50 48 47 47 46 47 48 49 49 48 48 50 50 51 52 55 57 59 60 60 59 58 56 54 54 54 54 52 51 53 53 53 53 52 51 50 50 50 50 50 50 49 47 48 48 47 48 49 50 51 53 53 50 48 48 49 47 44 42 41 40 40 40 39 39 39 39 38 38 38
67 67 67 66 64 62 60 60 59 57 57 56 57 55 54 54 53 51 49 47 47 46 45 46 46 46 46 46 47 49 50 51 52 53 55 58 59 58 59 60 58 56 54 53 53 52 50 50 51 51 52 52 51 50 50 50 50 50 50 48 47 48 48 48 49 50 50 51 52 52 51 49 49 48 46 44 42 42 42 42 41 40 40 40 40 40 40 39
67 67 67 66 65 63 61 61 60 58 58 59 58 58 56 55 53 51 49 47 46 46 46 45 44 43 43 43 43 45 47 49 50 50 53 55 55 56 57 59 59 59 57 54 54 54 52 51 52 51 51 52 52 52 52 51 51 51 50 49 48 48 48 48 49 49 50 50 51 52 52 50 48 46 45 44 43 42 42 41 40 40 40 40 40 40 40 40
67 68 68 67 66 65 63 61 61 61 61 61 60 59 58 56 54 53 51 49 48 47 47 45 44 43 42 42 41 41 42 45 46 48 50 52 52 54 56 58 59 59 58 57 56 56 54 54 54 53 52 52 53 54 53 53 52 51 51 50 49 48 48 49 49 48 49 50 50 52 54 52 50 46 44 44 43 43 42 41 40 40 40 40 40 40 40 40
69 68 68 68 67 67 66 64 63 63 63 61 60 60 59 58 56 55 53 51 50 49 48 46 45 44 43 43 42 40 40 42 43 44 47 49 50 51 52 55 57 58 59 60 60 59 58 58 58 57 55 54 54 53 52 52 51 51 50 50 48 46 46 47 48 49 49 50 52 54 56 55 52 47 44 43 43 42 42 41 40 40 40 40 40 40 41 40
71 69 68 68 68 68 68 67 66 64 64 63 62 61 59 57 56 55 53 52 51 50 49 48 47 46 45 45 44 42 41 41 42 43 44 45 46 47 49 52 55 56 57 59 61 62 61 60 60 60 59 57 55 54 53 52 51 51 51 50 48 47 47 47 49 51 50 50 51 52 54 55 52 47 44 44 43 42 41 41 41 41 41 41 41 41 41 41
70 70 69 68 68 69 69 69 69 67 66 65 63 60 58 57 56 54 53 52 51 51 50 49 48 48 48 48 47 44 42 42 42 41 41 41 43 45 47 50 54 54 54 56 59 61 61 61 61 60 60 59 57 56 53 52 52 52 52 52 51 51 51 51 53 54 53 52 51 51 55 57 53 46 45 45 45 44 43 42 42 41 41 40 40 40 40 40
66 68 70 69 69 70 70 70 69 67 65 64 62 60 59 57 56 54 52 52 51 51 50 49 48 48 48 49 50 48 46 46 45 43 42 42 43 43 44 46 49 52 53 54 56 58 61 62 62 61 60 59 59 58 57 56 56 56 56 55 55 54 53 52 52 52 53 53 51 52 57 59 54 48 46 47 46 44 43 42 42 41 40 40 39 39 39 39
65 68 71 72 71 71 71 70 68 65 63 62 61 60 59 58 57 55 54 52 51 51 50 50 48 47 47 49 51 50 49 49 47 46 46 45 44 44 44 44 46 48 50 52 54 57 60 64 64 63 64 63 64 65 64 62 61 61 60 58 56 55 53 51 50 50 52 52 51 52 54 55 53 49 48 47 45 44 44 43 42 42 41 41 40 40 40 40
66 69 72 72 73 72 70 68 66 64 62 61 60 59 59 58 57 55 55 54 52 50 50 49 48 47 48 50 51 52 51 50 50 50 48 48 47 46 45 44 45 47 48 50 52 55 59 63 64 64 65 66 66 65 63 60 57 56 56 54 53 51 49 48 48 50 50 49 51 51 50 51 52 50 49 47 44 43 43 43 43 44 45 44 44 43 43 42
66 68 69 68 70 71 69 67 65 62 59 58 59 58 58 57 56 55 55 54 52 51 50 50 49 49 48 48 50 52 52 52 52 52 50 50 50 49 48 46 46 47 48 49 51 54 56 60 63 65 65 65 65 63 61 58 55 53 52 51 49 48 46 46 48 47 45 46 50 49 46 48 52 50 48 47 43 42 44 44 45 46 46 46 45 44 43 42
66 66 66 65 64 64 63 62 60 59 58 59 59 59 59 58 56 55 55 54 53 52 52 51 51 50 49 48 48 50 53 54 55 54 53 52 51 51 51 50 49 48 48 49 52 54 56 57 59 62 65 65 65 64 63 62 60 57 55 53 51 48 47 47 48 46 44 47 51 49 46 50 52 48 47 47 46 45 45 46 46 46 45 45 44 43 43 42
67 67 67 65 63 61 59 59 60 61 61 61 62 61 61 60 58 56 56 55 54 54 54 53 52 51 51 50 49 50 52 53 54 54 55 54 54 53 53 53 53 51 50 51 52 54 57 57 56 58 62 65 66 66 64 63 63 62 60 59 56 53 52 51 50 49 49 52 55 54 54 55 55 51 49 49 48 47 47 46 45 45 44 44 43 44 44 44
69 70 70 69 67 63 61 62 64 64 63 63 64 64 63 63 61 59 58 57 56 56 55 53 53 52 52 51 50 50 50 49 50 52 55 56 57 56 55 54 53 52 52 52 53 54 56 56 55 55 57 61 65 67 66 65 65 64 63 61 59 57 55 54 55 55 56 58 59 59 59 59 56 52 49 49 48 47 48 46 44 44 44 45 45 46 47 47
66 66 67 69 70 69 67 66 65 64 65 65 65 64 64 64 62 61 59 58 58 57 54 53 53 52 52 52 51 50 47 46 48 51 54 56 57 57 56 55 53 52 52 51 52 54 55 54 54 54 56 58 61 65 68 67 66 67 66 64 63 62 60 60 60 59 58 58 57 57 58 58 53 49 47 48 47 47 47 47 46 47 47 48 49 49 49 50
63 61 60 60 63 65 67 68 69 69 67 65 64 64 63 63 61 61 60 59 59 58 56 54 53 51 52 53 52 50 48 47 47 49 51 55 58 59 59 58 55 53 51 50 50 51 52 53 52 53 56 56 57 61 66 68 70 72 70 67 66 66 65 64 63 61 58 56 55 56 57 55 50 48 47 48 47 48 49 49 50 51 52 52 52 52 53 53
Wind_Direction
223 224 223 220 217 213 211 211 209 208 208 210 212 213 214 216 216 218 217 215 215 211 210 210 211 214 217 220 221 226 221 211 207 207 208 209 207 206 207 205 201 199 199 199 197 195 196 196 196 196 194 193 191 190 188 188 187 186 186 186 186 186 183 180 181 180 179 179 178 176 177 176 173 168 167 166 168 169 164 161 157 154 152 148 142 136 132 130
219 221 220 218 216 211 209 210 209 208 207 209 212 212 213 214 215 217 216 214 214 211 210 211 212 214 217 219 221 223 220 214 209 206 208 211 207 204 206 207 203 199 199 198 198 196 196 197 197 196 195 194 192 191 190 189 188 188 187 187 189 188 184 183 182 180 180 180 178 176 176 176 175 171 170 169 169 170 165 161 157 155 154 150 145 139 136 134
217 218 217 215 214 210 207 208 208 208 206 208 211 211 212 213 214 215 215 213 213 212 211 210 210 213 215 216 216 216 214 214 212 207 210 211 208 205 206 209 205 200 198 198 198 196 197 197 196 196 195 194 193 192 191 189 189 188 187 190 191 188 185 184 183 182 182 180 179 177 177 177 176 174 173 172 172 172 167 163 159 156 154 150 146 142 140 138
214 214 212 211 212 208 205 207 207 207 206 208 210 211 211 212 212 214 213 212 213 212 211 209 209 210 213 213 213 212 211 211 209 207 210 210 208 205 205 208 205 199 198 198 197 196 197 197 196 194 193 194 194 192 191 190 190 188 190 192 191 188 187 186 184 184 183 182 181 179 178 177 177 176 175 175 175 173 169 165 162 160 159 155 150 146 144 141
210 208 208 207 208 206 204 205 206 206 205 207 210 210 211 211 211 212 212 211 212 212 211 209 209 209 211 212 214 217 218 215 212 208 208 208 208 206 204 206 204 198 198 198 197 197 198 198 197 194 192 193 194 193 191 190 189 189 193 193 190 190 189 186 186 186 184 184 183 181 179 177 177 178 178 178 176 174 171 168 166 167 167 164 157 154 151 148
204 202 204 204 204 203 202 203 205 205 205 206 209 210 211 210 210 211 210 210 211 211 210 209 210 210 212 213 216 221 225 223 221 214 207 206 208 208 205 205 204 198 197 198 197 198 199 199 197 194 193 193 194 193 191 190 189 191 193 192 192 192 189 187 188 187 187 186 185 183 181 178 179 179 180 181 178 176 175 173 173 173 171 167 163 160 158 156
200 199 200 200 201 201 201 202 204 204 204 206 208 209 210 209 209 209 208 209 209 210 210 210 209 210 213 214 217 224 227 226 225 219 210 207 207 208 207 207 206 199 196 199 199 198 199 199 197 195 194 194 195 193 191 190 190 193 193 193 194 191 189 189 189 189 189 188 187 186 183 180 181 181 183 184 182 181 179 178 179 179 179 177 171 166 163 162
197 197 197 197 198 199 199 201 202 203 204 205 207 208 209 209 208 207 207 207 207 208 209 210 209 209 211 213 216 221 225 226 225 223 217 211 206 207 207 208 208 200 195 198 199 198 200 199 197 196 195 195 195 193 191 191 192 193 193 194 195 191 190 190 190 191 190 189 189 189 186 183 182 183 185 186 187 186 183 182 183 184 187 187 183 178 175 172
195 196 195 195 196 197 198 200 201 202 203 205 206 208 208 208 207 205 205 205 205 207 206 205 207 210 211 211 215 218 222 224 223 223 222 216 208 205 206 208 207 199 194 196 197 197 200 199 198 197 196 195 194 193 193 193 194 194 194 196 195 192 192 191 191 192 191 191 191 191 189 185 184 185 187 189 190 190 187 185 185 187 190 191 191 191 188 185
194 194 193 194 195 196 197 198 200 201 202 204 205 207 207 207 207 204 204 203 202 206 203 199 202 209 213 214 216 218 220 224 224 223 223 222 213 206 206 208 205 196 193 195 195 196 198 199 199 198 196 195 194 193 193 194 195 195 196 197 195 194 194 193 193 193 193 192 192 192 192 189 187 187 190 192 193 193 191 189 189 190 193 195 197 198 198 197
193 192 192 193 195 195 196 197 199 200 201 204 205 206 205 205 206 203 203 201 201 204 201 198 201 206 213 215 216 217 219 222 222 222 222 224 218 209 208 208 203 195 193 194 193 195 198 199 200 199 196 195 194 194 194 196 195 195 197 198 196 195 195 196 195 195 195 194 193 193 193 192 190 191 194 196 196 196 195 194 193 194 196 198 200 202 203 205
192 191 191 193 194 195 195 196 197 199 200 203 204 204 204 204 205 203 202 200 202 203 199 199 203 207 213 214 215 216 219 221 220 221 221 223 220 214 210 209 202 194 192 193 192 194 197 198 200 200 198 195 195 195 195 196 195 195 198 199 197 196 197 197 197 197 197 195 194 195 194 193 194 196 199 199 198 199 200 199 197 198 199 201 202 204 206 208
190 190 191 192 194 194 194 194 196 198 200 202 203 203 202 202 203 203 202 201 202 203 200 199 202 209 214 213 213 215 219 220 219 219 220 222 219 216 212 207 200 192 191 192 191 194 196 198 200 200 199 197 196 196 196 196 195 197 200 199 197 197 198 197 198 198 198 196 195 196 194 194 196 199 201 202 202 204 206 205 202 202 202 204 205 206 208 210
189 190 191 192 193 193 194 194 195 197 199 201 202 201 201 201 202 202 201 200 201 202 201 200 202 210 213 211 211 214 217 219 219 219 220 220 218 217 212 204 196 190 190 191 191 194 197 198 199 200 200 199 199 197 197 197 197 200 202 201 199 199 198 197 198 199 199 198 197 198 196 197 199 199 202 203 205 207 209 209 208 208 207 209 211 211 212 215
188 189 191 191 192 193 194 194 195 197 198 200 200 200 199 199 200 200 200 200 201 201 202 202 204 210 211 209 211 213 216 218 219 219 218 218 216 214 208 199 192 189 189 190 192 196 197 198 199 199 199 200 200 199 198 199 199 201 203 203 202 201 199 198 200 200 200 200 200 200 198 200 201 200 204 205 207 210 211 212 213 213 213 214 217 218 220 222
188 189 190 191 191 192 193 193 195 197 197 198 198 198 198 197 198 198 198 199 200 200 202 203 205 209 210 209 211 213 216 216 217 217 217 216 214 210 202 193 189 188 189 190 192 196 198 199 200 199 198 200 201 201 200 201 202 203 204 205 203 201 200 200 202 202 201 202 203 202 200 202 202 202 206 207 208 212 212 214 215 216 217 217 220 222 225 228
188 190 190 191 191 192 193 193 195 196 196 196 197 198 196 196 196 197 197 198 199 200 202 203 203 206 208 208 211 213 216 216 216 215 214 213 208 204 197 190 187 188 190 191 193 196 198 200 200 199 199 200 201 202 202 203 205 205 206 206 202 202 201 201 204 204 204 204 205 205 203 205 205 204 208 210 211 213 214 217 218 220 220 220 222 223 226 229
189 190 190 190 191 192 193 193 194 195 196 196 196 197 196 196 196 196 197 197 198 200 201 202 203 206 208 209 211 213 214 215 213 212 210 208 203 199 194 189 188 189 191 192 194 197 198 199 200 201 200 200 201 202 203 205 207 207 208 208 203 203 204 204 206 206 206 207 208 209 205 207 210 207 209 212 214 215 216 219 222 224 224 225 226 227 229 231
189 190 189 190 192 193 193 192 194 196 196 196 196 196 195 195 195 195 197 199 201 203 205 207 209 212 212 210 210 211 213 213 211 210 208 204 200 196 192 189 189 191 193 194 195 197 198 199 200 201 200 201 201 202 204 206 207 207 209 209 206 206 207 207 208 208 210 210 210 211 207 209 215 211 209 214 216 217 218 221 225 228 229 230 231 233 234 235
189 189 189 191 192 193 193 193 194 196 196 197 197 197 197 197 196 197 198 200 203 207 210 213 214 213 211 209 208 208 210 211 210 208 205 201 197 193 191 190 191 192 193 195 197 198 200 201 201 201 201 202 203 204 206 207 206 205 207 208 206 207 209 208 209 210 213 212 210 212 209 210 217 215 212 214 217 220 221 223 227 231 234 235 236 238 239 240
189 189 190 191 192 193 193 193 194 195 196 198 199 200 201 202 204 205 204 204 205 206 208 210 213 212 208 208 210 209 210 210 208 205 202 199 195 192 192 192 193 193 194 195 197 199 201 203 202 202 203 204 205 206 207 207 206 206 207 208 207 209 211 208 209 212 214 213 211 212 211 211 217 220 218 216 218 222 226 228 229 233 236 239 240 242 244 245
190 189 190 191 192 193 193 194 194 195 196 197 199 199 201 203 206 209 212 211 209 206 204 205 208 210 207 207 211 213 211 209 207 205 202 199 195 193 193 194 194 195 196 197 198 200 202 203 202 203 204 206 207 207 208 208 207 207 207 209 209 210 211 210 211 214 215 216 214 213 214 212 217 223 223 220 219 223 230 233 234 236 237 240 242 244 247 249
190 189 191 192 193 193 193 194 195 196 196 197 198 199 199 201 202 204 209 213 212 208 203 201 203 206 206 206 208 212 211 208 207 205 202 199 196 195 194 195 197 197 198 199 200 201 202 202 203 204 205 206 208 208 209 209 208 208 208 210 211 211 213 213 214 215 217 219 217 216 217 214 217 223 226 225 222 222 229 234 238 240 241 241 243 245 248 251
190 190 191 192 193 193 194 194 195 195 196 196 197 198 198 199 201 203 205 208 211 211 206 202 202 204 205 204 206 209 209 207 205 203 202 199 197 196 195 197 199 198 200 201 203 205 204 204 204 205 206 207 208 209 210 210 210 209 209 210 211 212 214 215 215 216 218 220 220 220 221 217 217 223 227 228 226 224 228 232 236 241 244 245 246 247 248 251
190 190 192 193 193 194 194 195 195 195 195 196 197 197 197 199 201 203 204 205 208 210 209 206 205 206 206 204 205 206 205 204 203 201 201 199 198 197 197 199 200 200 201 203 205 207 207 206 206 207 209 209 210 211 211 212 212 211 211 212 212 213 215 216 216 218 220 221 222 223 224 220 219 223 226 229 229 227 229 232 235 239 243 247 249 250 250 252
191 191 192 193 193 194 195 195 195 195 195 195 196 197 197 199 201 202 204 206 208 208 208 207 207 209 208 207 207 205 202 201 201 200 199 198 198 199 200 201 201 201 202 204 207 209 208 208 208 210 210 211 212 213 213 214 214 214 213 213 214 215 217 217 218 220 222 222 222 224 226 224 222 224 226 229 232 232 232 235 237 240 244 247 250 252 253 254
191 192 192 193 194 195 195 195 195 196 196 196 196 197 198 200 201 202 203 206 208 207 207 208 208 208 209 210 210 207 203 201 200 200 200 199 198 198 200 202 203 203 204 206 208 209 209 209 210 211 212 212 212 213 214 216 217 216 214 215 217 218 219 219 220 222 223 224 224 225 227 228 224 224 227 231 234 236 236 238 240 243 247 249 250 252 253 254
192 192 192 193 194 195 195 196 197 197 197 197 197 198 199 200 201 202 204 206 207 205 206 208 208 209 209 209 210 209 207 204 202 202 200 200 199 199 200 201 203 205 206 208 209 209 209 211 212 213 213 214 214 214 215 217 219 218 217 219 221 221 222 222 222 224 225 226 226 225 228 231 228 225 227 231 236 238 239 241 243 245 248 250 252 253 253 254
193 192 192 194 194 195 195 195 197 198 198 197 198 198 199 200 201 201 204 207 206 204 204 206 207 209 210 210 211 210 207 205 204 204 202 202 201 200 200 201 202 204 206 208 210 209 211 212 213 214 215 215 215 216 217 219 221 219 219 221 222 223 224 224 225 226 227 228 228 226 228 232 231 227 228 231 236 241 242 243 244 246 248 250 252 253 254 255
193 193 193 195 195 195 194 195 196 198 198 197 198 199 199 200 200 200 204 207 206 205 204 205 206 208 209 210 212 211 209 207 205 204 204 204 203 202 202 202 203 206 207 208 208 208 210 212 214 215 215 215 215 217 218 220 221 220 220 221 222 224 225 226 227 228 230 230 229 228 229 233 234 230 230 233 237 242 245 245 246 248 250 252 253 253 253 255
193 193 194 195 195 195 195 196 197 196 197 198 198 199 199 199 200 202 205 206 206 206 205 205 206 208 209 211 213 213 211 209 207 205 206 206 205 205 204 204 205 206 207 208 208 208 208 211 213 213 214 214 215 217 217 219 219 220 221 221 223 225 226 227 228 229 231 230 229 230 231 235 236 232 232 235 239 245 247 248 249 250 252 255 255 254 254 255
194 193 194 196 195 195 196 198 198 196 196 197 199 200 200 200 201 204 206 206 207 207 207 207 209 210 210 211 214 215 214 212 209 208 207 207 208 207 207 207 207 208 208 209 209 209 209 211 211 212 213 213 215 217 218 219 220 220 221 222 223 225 227 228 229 230 232 232 231 232 234 237 237 236 236 237 240 246 250 251 253 254 254 255 256 256 256 257
194 194 194 195 195 195 196 197 198 197 196 196 198 201 202 204 205 206 207 208 209 209 208 209 211 212 212 212 213 214 215 215 213 211 209 209 210 210 209 210 210 211 212 211 212 212 211 212 212 212 213 214 216 218 219 220 221 223 224 224 225 227 228 229 231 233 234 235 235 236 239 240 239 239 239 240 241 245 250 253 255 256 256 256 256 257 257 258
195 195 195 195 194 195 196 197 197 197 197 197 198 199 202 206 207 209 210 209 210 210 209 210 211 213 214 214 215 215 215 215 215 214 212 212 211 211 211 211 212 213 214 215 216 216 216 216 215 215 216 217 218 220 221 222 224 225 227 228 229 231 232 233 236 238 238 240 240 240 241 240 240 241 241 242 244 245 249 252 254 257 258 258 258 258 258 258
195 196 195 195 195 196 196 197 197 197 198 199 200 201 203 205 206 208 211 211 210 211 210 211 213 214 215 216 216 217 217 217 217 216 215 215 215 214 214 213 213 214 215 216 217 218 219 220 219 220 221 222 223 224 225 225 227 227 228 229 230 232 234 235 237 239 239 240 241 241 241 241 241 244 244 244 245 246 249 251 253 256 258 259 260 259 259 259
196 196 196 196 197 197 197 198 198 197 199 200 202 204 206 207 208 209 210 210 212 212 211 211 213 215 217 217 217 218 218 219 220 220 219 219 218 217 216 216 215 216 217 217 218 219 220 220 220 221 222 224 226 227 228 229 230 230 231 232 233 234 235 236 238 240 240 241 242 241 242 243 243 245 246 246 247 248 250 252 253 255 256 258 260 260 261 261
198 198 197 197 197 199 199 199 199 199 200 202 206 208 208 209 210 211 210 210 212 213 213 214 214 215 217 218 218 220 220 220 222 223 223 223 222 221 219 218 218 218 219 220 221 221 222 222 222 221 222 223 225 226 227 228 230 231 233 235 236 237 237 238 239 240 241 243 244 244 243 244 245 247 248 249 252 252 253 253 254 254 256 257 259 260 261 262
200 199 199 198 198 199 200 201 201 201 202 204 207 209 210 210 211 211 210 211 213 214 215 216 218 219 220 220 220 221 221 221 222 223 224 225 226 226 223 222 221 221 221 222 222 222 222 223 223 222 223 224 225 226 226 227 228 230 232 233 235 237 237 238 239 241 242 244 246 246 245 245 246 248 250 252 254 254 254 254 255 255 256 257 258 260 261 261
200 199 199 199 199 200 201 202 203 203 205 207 208 209 210 212 212 212 212 212 214 216 218 218 219 221 223 225 225 226 225 224 224 224 225 226 227 228 226 225 224 223 223 224 224 223 222 222 223 222 223 224 225 226 227 227 228 229 231 231 233 235 236 237 239 241 243 244 246 247 246 245 245 248 251 252 253 253 254 255 256 256 256 257 258 259 260 261
200 200 200 200 200 201 202 203 204 205 207 210 211 212 212 212 213 213 214 214 215 217 219 219 220 221 223 226 227 229 230 230 228 228 228 228 228 228 227 226 226 225 225 226 226 226 224 223 223 222 222 224 225 226 226 228 229 230 231 232 233 236 238 239 239 240 242 244 246 247 246 245 244 245 249 252 253 254 255 255 255 256 257 258 259 259 259 260
199 201 201 201 201 202 203 204 206 208 211 212 213 214 214 214 214 215 216 217 218 220 221 222 222 223 224 226 227 228 230 231 231 230 230 229 230 230 229 228 229 228 228 229 229 228 227 226 226 224 223 224 225 226 227 227 228 229 231 232 233 235 238 240 241 241 243 245 245 246 247 246 245 245 248 251 253 254 254 254 255 256 257 258 258 258 259 259
200 201 202 203 203 204 205 207 209 211 213 214 215 216 216 217 217 217 217 219 220 222 223 224 225 225 226 227 227 228 229 231 231 231 231 230 231 232 231 230 231 231 232 232 231 231 229 227 227 226 225 224 224 225 226 228 228 229 230 230 231 232 234 237 238 238 239 241 244 246 247 245 245 245 246 249 252 253 254 256 256 256 257 257 257 256 257 257
202 202 202 203 204 206 207 209 211 213 215 216 217 218 218 219 219 219 219 220 221 223 224 225 226 227 227 228 227 227 228 230 231 231 232 231 231 231 231 230 230 232 234 233 232 230 229 227 226 226 225 225 224 224 225 226 227 227 228 229 230 232 233 235 237 237 237 238 240 244 245 244 244 245 247 249 251 253 254 255 256 256 255 255 254 254 254 254
204 205 204 203 204 206 208 211 213 216 218 218 218 218 219 219 219 219 219 220 222 223 224 225 226 227 228 228 228 227 227 228 229 229 229 230 230 231 232 231 230 231 232 233 234 233 231 229 228 227 226 225 224 224 224 225 227 228 229 229 230 231 232 234 236 238 239 239 240 243 246 247 247 248 249 250 251 252 253 254 254 254 253 252 252 251 251 251
205 206 205 205 206 208 210 214 216 218 219 220 219 219 219 218 219 219 220 221 222 224 225 226 226 227 228 228 228 227 226 228 229 229 228 228 229 229 230 231 230 231 231 231 233 234 233 232 230 229 229 227 225 225 226 228 229 230 230 230 230 231 233 235 237 239 240 240 241 244 247 248 248 248 248 250 250 251 252 252 251 252 251 250 249 249 249 249
206 206 207 207 208 211 213 215 217 219 220 220 220 220 220 220 220 221 221 221 222 223 225 226 227 228 227 227 228 228 228 229 230 230 229 229 230 230 231 231 230 231 231 231 231 232 233 234 233 232 232 232 230 230 230 231 231 231 231 232 232 234 235 237 238 239 240 242 242 243 245 247 247 247 247 248 248 248 248 249 249 250 250 250 249 249 249 249
208 208 209 209 211 212 214 216 217 218 220 221 222 224 224 224 224 224 224 223 222 222 225 226 227 228 228 228 229 229 228 230 231 232 232 231 230 230 232 233 232 231 231 232 233 233 233 235 236 235 235 235 234 233 231 231 232 232 233 233 234 236 237 238 240 240 241 244 243 242 243 245 246 246 246 246 246 246 246 246 247 247 248 249 250 251 251 251
211 210 210 212 214 215 214 216 218 219 221 222 224 225 226 227 227 227 227 226 225 225 226 227 227 228 229 230 230 230 228 228 229 230 231 231 232 232 232 233 233 233 232 233 234 235 234 234 234 236 237 236 235 234 232 232 232 232 231 231 231 233 235 237 239 238 239 243 242 240 240 242 242 243 243 243 244 245 245 245 247 248 249 250 251 252 253 254
213 213 211 212 216 218 217 216 217 218 219 221 223 225 226 227 228 229 229 229 229 228 229 230 230 230 231 231 231 231 230 229 230 230 230 231 231 232 233 234 235 235 234 234 235 237 238 236 234 236 238 237 236 235 234 234 233 232 232 232 231 231 233 234 235 234 236 239 241 240 239 240 240 240 242 243 245 247 248 248 248 250 251 253 254 254 255 256
209 211 211 211 215 218 218 217 218 219 220 220 222 223 225 226 227 227 228 229 230 231 230 231 233 234 235 234 234 233 233 232 232 231 231 231 232 233 234 236 237 237 236 235 236 238 240 239 237 237 239 238 237 237 237 236 235 234 234 233 233 234 234 235 235 236 237 240 242 242 241 242 242 243 244 246 248 250 252 252 252 253 254 254 255 256 257 258
206 207 209 210 213 216 218 218 219 221 223 223 223 223 224 226 227 227 228 229 230 231 232 233 235 236 237 237 236 235 234 233 233 232 231 232 233 234 236 237 238 239 238 236 237 239 241 242 241 240 240 239 238 238 238 238 238 236 234 234 234 235 237 238 239 240 241 243 244 245 245 246 247 247 247 249 249 251 254 257 257 256 255 255 255 256 258 261
208 207 208 209 211 214 217 219 220 222 223 224 225 225 226 226 227 228 228 229 230 231 233 234 235 236 238 238 237 236 235 234 235 234 233 232 232 233 234 236 236 236 236 236 237 238 241 243 243 243 243 242 241 240 239 239 239 237 235 235 236 237 238 240 240 240 242 244 245 246 247 249 249 247 247 248 249 251 254 258 259 258 257 257 258 259 261 263
Height
5655 5661 5668 5674 5681 5686 5692 5697 5702 5706 5711 5715 5719 5723 5726 5730 5733 5736 5739 5742 5745 5748 5751 5753 5755 5757 5759 5762 5764 5766 5768 5769 5772 5777 5782 5787 5790 5793 5797 5801 5804 5808 5811 5814 5818 5822 5826 5830 5833 5837 5840 5842 5844 5846 5848 5850 5851 5853 5854 5856 5858 5859 5860 5861 5863 5865 5866 5868 5869 5870 5871 5872 5873 5874 5875 5876 5877 5878 5878 5878 5879 5880 5881 5882 5882 5883 5884 5885
5649 5656 5663 5670 5676 5682 5688 5694 5698 5703 5708 5712 5716 5720 5723 5727 5730 5733 5736 5739 5742 5745 5748 5750 5753 5755 5757 5759 5762 5764 5765 5767 5770 5775 5780 5784 5787 5791 5795 5798 5801 5805 5808 5812 5816 5820 5824 5828 5832 5835 5838 5841 5843 5845 5847 5849 5851 5852 5854 5856 5856 5858 5859 5861 5863 5865 5866 5867 5868 5869 5870 5871 5873 5874 5875 5876 5877 5878 5878 5879 5879 5880 5881 5882 5882 5883 5884 5885
5645 5652 5659 5665 5672 5678 5684 5690 5695 5699 5704 5708 5713 5717 5721 5724 5727 5730 5733 5736 5739 5742 5745 5748 5750 5753 5755 5757 5760 5762 5764 5766 5770 5775 5778 5781 5786 5790 5792 5795 5798 5802 5806 5809 5813 5817 5821 5825 5829 5833 5837 5840 5842 5844 5846 5848 5849 5851 5853 5854 5855 5857 5859 5860 5862 5864 5865 5866 5868 5869 5870 5871 5872 5874 5875 5876 5877 5878 5878 5879 5880 5881 5882 5882 5882 5883 5884 5885
5641 5648 5654 5661 5667 5674 5680 5686 5691 5696 5701 5705 5709 5714 5718 5721 5724 5727 5730 5733 5736 5739 5742 5745 5748 5750 5753 5756 5759 5761 5762 5765 5770 5774 5775 5778 5783 5786 5789 5793 5795 5798 5803 5807 5811 5815 5819 5823 5826 5829 5833 5837 5840 5842 5844 5846 5848 5850 5851 5852 5855 5857 5858 5859 5862 5863 5864 5866 5867 5868 5869 5870 5871 5873 5874 5876 5877 5877 5878 5879 5880 5881 5882 5883 5883 5883 5884 5885
5637 5643 5650 5657 5663 5670 5676 5682 5687 5693 5698 5702 5706 5710 5714 5718 5721 5724 5727 5730 5733 5736 5739 5742 5745 5748 5751 5754 5757 5759 5761 5764 5767 5769 5772 5776 5780 5783 5786 5790 5792 5795 5800 5805 5809 5814 5817 5821 5824 5827 5830 5834 5837 5839 5842 5844 5846 5848 5850 5852 5855 5856 5857 5859 5861 5862 5864 5865 5866 5867 5868 5869 5870 5872 5874 5875 5876 5877 5878 5878 5879 5881 5882 5882 5883 5883 5884 5885
5633 5640 5646 5653 5659 5666 5673 5679 5684 5689 5694 5698 5703 5707 5711 5715 5718 5721 5724 5727 5731 5734 5736 5739 5742 5746 5749 5753 5755 5756 5758 5762 5764 5766 5770 5774 5777 5780 5783 5787 5790 5792 5797 5802 5807 5812 5816 5819 5823 5826 5829 5832 5835 5838 5841 5844 5846 5847 5849 5852 5853 5854 5856 5858 5860 5861 5863 5864 5865 5867 5868 5869 5870 5871 5873 5874 5876 5877 5877 5878 5879 5880 5881 5882 5882 5883 5884 5885
5629 5636 5642 5649 5656 5663 5669 5675 5680 5685 5691 5695 5700 5704 5708 5712 5715 5719 5721 5724 5728 5731 5733 5737 5741 5744 5747 5751 5753 5753 5755 5759 5761 5764 5768 5771 5773 5776 5779 5783 5786 5789 5795 5800 5805 5810 5814 5818 5821 5825 5828 5832 5835 5837 5840 5842 5844 5845 5848 5850 5851 5853 5855 5857 5858 5860 5861 5863 5865 5866 5867 5868 5869 5871 5872 5874 5875 5876 5877 5877 5878 5880 5881 5882 5882 5883 5884 5884
5626 5632 5639 5646 5652 5659 5665 5671 5676 5682 5687 5692 5697 5701 5705 5709 5713 5716 5718 5722 5726 5728 5731 5735 5740 5742 5744 5749 5750 5751 5753 5756 5759 5761 5764 5767 5769 5772 5775 5779 5782 5787 5792 5798 5804 5808 5812 5816 5820 5823 5827 5830 5834 5837 5839 5841 5842 5844 5846 5848 5850 5852 5853 5855 5857 5858 5860 5862 5863 5865 5866 5867 5869 5870 5871 5873 5874 5875 5876 5876 5877 5879 5880 5881 5882 5883 5884 5884
5622 5629 5635 5642 5649 5655 5661 5667 5673 5679 5685 5689 5694 5698 5702 5706 5710 5713 5716 5719 5723 5726 5730 5735 5738 5739 5742 5745 5746 5749 5752 5753 5756 5758 5760 5763 5766 5769 5772 5775 5779 5783 5789 5795 5801 5806 5810 5814 5818 5821 5825 5828 5832 5836 5838 5840 5841 5843 5845 5847 5849 5851 5852 5854 5855 5857 5859 5860 5862 5864 5865 5867 5868 5869 5871 5872 5873 5874 5875 5876 5877 5878 5879 5880 5881 5882 5883 5884
5618 5625 5632 5639 5645 5651 5657 5663 5670 5676 5681 5686 5691 5695 5699 5703 5707 5711 5713 5717 5721 5723 5728 5732 5734 5737 5739 5741 5743 5747 5750 5750 5753 5756 5758 5761 5763 5767 5770 5773 5776 5780 5786 5793 5799 5803 5808 5812 5816 5819 5823 5827 5830 5833 5836 5837 5839 5842 5844 5846 5848 5850 5851 5853 5854 5855 5857 5859 5861 5863 5865 5866 5867 5868 5870 5871 5872 5873 5874 5875 5876 5877 5879 5880 5881 5881 5882 5883
5615 5622 5629 5636 5642 5648 5654 5660 5667 5672 5677 5683 5687 5691 5696 5700 5704 5708 5711 5714 5718 5721 5726 5729 5731 5734 5736 5738 5741 5745 5746 5747 5750 5753 5756 5758 5761 5765 5767 5770 5773 5778 5784 5791 5797 5801 5806 5810 5813 5817 5820 5823 5826 5829 5832 5834 5837 5840 5842 5844 5845 5848 5850 5851 5853 5854 5856 5857 5859 5861 5863 5865 5866 5867 5868 5870 5871 5873 5874 5874 5875 5876 5878 5879 5880 5881 5881 5882
5612 5619 5626 5633 5639 5644 5650 5657 5663 5669 5674 5679 5684 5688 5692 5697 5701 5705 5708 5711 5714 5718 5723 5726 5729 5731 5732 5735 5739 5741 5742 5745 5748 5751 5754 5757 5759 5762 5764 5767 5770 5775 5782 5788 5793 5798 5802 5806 5810 5814 5817 5820 5822 5825 5828 5831 5835 5838 5839 5841 5843 5845 5847 5849 5852 5853 5855 5856 5858 5860 5862 5864 5865 5866 5867 5869 5870 5872 5873 5874 5874 5875 5877 5878 5879 5880 5881 5881
5609 5616 5623 5629 5636 5641 5647 5654 5659 5665 5671 5676 5681 5685 5689 5694 5698 5702 5705 5708 5711 5715 5719 5722 5727 5729 5729 5733 5736 5738 5740 5743 5746 5749 5752 5754 5757 5759 5762 5764 5768 5773 5779 5785 5790 5795 5799 5803 5807 5812 5815 5818 5820 5823 5826 5829 5833 5835 5836 5838 5840 5842 5844 5847 5850 5852 5853 5855 5857 5858 5860 5862 5863 5864 5866 5868 5869 5871 5872 5873 5874 5874 5875 5877 5878 5879 5880 5881
5606 5613 5620 5626 5632 5638 5645 5651 5656 5662 5667 5672 5678 5682 5686 5690 5694 5698 5702 5705 5708 5712 5716 5720 5724 5726 5726 5730 5733 5735 5737 5741 5744 5746 5749 5752 5755 5757 5759 5761 5765 5770 5776 5782 5787 5792 5795 5799 5804 5809 5813 5817 5819 5822 5825 5828 5831 5832 5834 5836 5838 5839 5842 5846 5848 5850 5852 5854 5855 5857 5859 5860 5861 5863 5865 5867 5868 5869 5871 5872 5873 5873 5874 5875 5877 5878 5879 5879
5603 5610 5617 5623 5629 5635 5641 5648 5653 5659 5664 5670 5675 5679 5683 5687 5691 5695 5698 5702 5706 5709 5713 5717 5721 5722 5724 5727 5730 5732 5735 5739 5742 5744 5747 5750 5752 5754 5756 5759 5763 5768 5774 5779 5785 5789 5793 5797 5801 5805 5810 5814 5817 5819 5822 5825 5827 5828 5831 5833 5835 5838 5841 5844 5846 5849 5851 5853 5854 5855 5857 5858 5860 5862 5864 5865 5867 5868 5869 5871 5872 5872 5873 5874 5875 5876 5877 5878
5601 5607 5614 5620 5626 5632 5639 5645 5650 5655 5661 5667 5671 5676 5680 5683 5687 5691 5695 5699 5703 5707 5710 5714 5717 5719 5721 5724 5728 5731 5734 5737 5740 5742 5745 5748 5750 5752 5753 5756 5761 5766 5772 5777 5781 5786 5791 5795 5798 5802 5807 5811 5814 5817 5820 5822 5824 5826 5830 5831 5834 5838 5841 5843 5845 5847 5850 5851 5852 5854 5856 5857 5859 5861 5862 5864 5865 5866 5868 5869 5870 5871 5872 5873 5874 5875 5875 5876
5598 5604 5611 5617 5623 5630 5636 5642 5647 5653 5658 5663 5667 5672 5676 5679 5683 5687 5691 5695 5700 5704 5707 5710 5713 5715 5718 5723 5727 5729 5732 5735 5737 5740 5742 5745 5747 5749 5751 5755 5759 5764 5769 5774 5778 5783 5787 5792 5797 5801 5804 5807 5811 5814 5817 5819 5821 5825 5827 5828 5833 5837 5840 5842 5844 5846 5848 5850 5851 5852 5854 5855 5857 5859 5860 5862 5863 5865 5866 5868 5869 5870 5870 5871 5872 5873 5874 5874
5595 5602 5608 5614 5621 5627 5633 5639 5645 5650 5655 5659 5663 5667 5671 5675 5679 5683 5687 5691 5695 5699 5701 5705 5709 5712 5717 5722 5725 5727 5729 5731 5734 5737 5739 5742 5744 5747 5750 5753 5758 5762 5766 5771 5775 5780 5784 5789 5794 5797 5800 5804 5807 5811 5814 5817 5820 5824 5826 5830 5835 5838 5840 5842 5843 5845 5847 5848 5849 5850 5852 5854 5855 5856 5858 5860 5861 5863 5865 5866 5867 5868 5869 5869 5870 5871 5871 5872
5593 5599 5606 5612 5618 5624 5630 5636 5641 5646 5651 5655 5658 5662 5666 5670 5675 5679 5683 5688 5691 5695 5699 5703 5707 5712 5717 5720 5722 5724 5725 5727 5731 5734 5737 5740 5743 5746 5749 5752 5756 5760 5764 5769 5773 5777 5782 5786 5788 5792 5797 5801 5805 5809 5812 5815 5819 5824 5828 5833 5837 5839 5840 5841 5842 5844 5844 5845 5847 5848 5851 5852 5852 5854 5856 5858 5859 5861 5863 5864 5865 5866 5867 5868 5868 5869 5869 5870
5590 5597 5603 5609 5615 5621 5627 5633 5638 5643 5648 5652 5655 5658 5662 5666 5671 5675 5681 5687 5692 5697 5701 5705 5708 5712 5715 5717 5718 5719 5721 5724 5728 5732 5735 5738 5740 5744 5747 5750 5753 5757 5762 5767 5771 5776 5780 5782 5786 5791 5797 5801 5804 5807 5809 5813 5819 5823 5827 5830 5833 5834 5835 5837 5839 5840 5840 5842 5844 5846 5848 5850 5850 5852 5854 5855 5857 5859 5861 5862 5863 5864 5865 5866 5866 5867 5868 5868
5588 5594 5600 5607 5613 5619 5625 5630 5635 5640 5645 5650 5655 5659 5664 5669 5673 5679 5684 5687 5691 5695 5699 5703 5707 5710 5713 5715 5716 5717 5720 5723 5726 5729 5732 5735 5738 5741 5745 5748 5751 5755 5760 5764 5769 5774 5777 5780 5786 5792 5795 5798 5801 5805 5809 5814 5818 5821 5823 5825 5828 5829 5830 5833 5835 5836 5837 5840 5842 5844 5846 5848 5849 5850 5852 5853 5856 5857 5858 5860 5861 5862 5863 5864 5865 5865 5866 5867
5586 5592 5598 5604 5611 5616 5622 5627 5632 5637 5643 5648 5653 5659 5665 5670 5676 5682 5685 5686 5688 5690 5694 5698 5702 5706 5710 5712 5714 5717 5719 5722 5725 5727 5730 5733 5736 5739 5743 5747 5751 5755 5758 5762 5766 5770 5773 5779 5784 5788 5791 5795 5799 5804 5807 5811 5814 5817 5819 5821 5823 5825 5828 5831 5833 5834 5837 5838 5840 5842 5844 5847 5848 5848 5849 5852 5854 5855 5856 5857 5859 5860 5861 5862 5863 5863 5864 5865
5584 5590 5596 5602 5608 5614 5619 5624 5630 5635 5641 5647 5652 5658 5662 5667 5673 5678 5681 5684 5687 5687 5689 5693 5697 5701 5705 5708 5711 5714 5717 5721 5724 5727 5729 5732 5735 5738 5742 5746 5749 5753 5757 5761 5765 5767 5771 5776 5780 5783 5788 5793 5797 5800 5803 5806 5810 5812 5815 5818 5820 5823 5826 5828 5830 5833 5835 5836 5838 5840 5842 5844 5845 5846 5847 5849 5851 5853 5854 5855 5856 5857 5859 5860 5861 5862 5862 5863
5582 5588 5594 5600 5605 5611 5616 5622 5627 5634 5640 5645 5650 5655 5660 5665 5670 5673 5676 5681 5685 5687 5689 5692 5695 5698 5701 5704 5707 5711 5714 5718 5722 5726 5728 5731 5734 5737 5741 5744 5747 5751 5755 5760 5764 5767 5770 5774 5778 5782 5787 5790 5792 5796 5799 5803 5806 5809 5812 5815 5817 5821 5823 5825 5827 5830 5831 5833 5835 5838 5839 5841 5843 5844 5845 5847 5848 5850 5851 5853 5853 5854 5856 5857 5858 5859 5860 5861
5580 5585 5591 5597 5603 5608 5614 5619 5626 5632 5637 5642 5647 5652 5657 5662 5666 5669 5673 5677 5681 5684 5688 5691 5694 5696 5699 5702 5705 5708 5713 5716 5720 5723 5726 5730 5733 5736 5739 5743 5746 5751 5755 5759 5762 5764 5768 5772 5777 5781 5784 5787 5790 5794 5797 5800 5803 5807 5810 5812 5815 5817 5819 5821 5824 5826 5828 5830 5832 5834 5835 5838 5840 5841 5843 5844 5846 5848 5849 5850 5851 5852 5853 5854 5856 5857 5858 5858
5578 5583 5589 5595 5600 5606 5611 5617 5624 5630 5635 5640 5645 5650 5654 5659 5662 5666 5671 5674 5676 5679 5683 5688 5691 5695 5698 5702 5704 5707 5710 5713 5717 5721 5724 5727 5731 5735 5739 5742 5745 5749 5752 5756 5758 5761 5766 5771 5775 5778 5781 5785 5788 5791 5795 5798 5800 5803 5806 5809 5812 5814 5816 5818 5821 5823 5824 5826 5829 5831 5832 5834 5836 5838 5840 5842 5843 5845 5846 5847 5849 5850 5851 5852 5853 5854 5855 5856
5576 5582 5587 5593 5599 5605 5611 5618 5622 5627 5632 5637 5642 5647 5651 5655 5659 5663 5667 5668 5670 5675 5680 5684 5688 5692 5696 5700 5702 5705 5707 5711 5716 5719 5722 5725 5729 5733 5736 5740 5744 5747 5750 5752 5755 5759 5765 5769 5772 5775 5778 5780 5783 5787 5792 5795 5796 5799 5803 5806 5808 5810 5813 5815 5817 5819 5820 5822 5825 5827 5828 5829 5832 5835 5838 5840 5841 5842 5844 5845 5846 5848 5849 5850 5851 5852 5852 5853
5575 5580 5586 5593 5599 5605 5611 5617 5622 5627 5631 5636 5640 5644 5648 5652 5655 5659 5660 5661 5665 5671 5676 5681 5686 5690 5693 5696 5699 5703 5707 5711 5714 5716 5720 5724 5727 5730 5733 5737 5741 5745 5749 5751 5753 5758 5763 5766 5769 5772 5774 5777 5780 5785 5788 5790 5792 5796 5801 5803 5805 5807 5809 5811 5813 5814 5816 5818 5820 5823 5825 5825 5828 5832 5835 5836 5838 5839 5841 5842 5844 5845 5846 5847 5848 5849 5850 5850
5573 5579 5585 5591 5596 5602 5608 5615 5621 5625 5628 5633 5637 5640 5644 5648 5651 5654 5655 5657 5662 5668 5673 5678 5683 5687 5691 5694 5697 5701 5706 5709 5712 5716 5720 5721 5724 5727 5730 5734 5738 5741 5744 5747 5751 5756 5760 5763 5766 5768 5771 5774 5779 5783 5786 5787 5789 5794 5798 5799 5801 5803 5805 5807 5809 5811 5812 5813 5815 5819 5821 5822 5824 5829 5832 5833 5835 5837 5838 5840 5841 5842 5843 5844 5845 5846 5846 5847
5572 5578 5583 5589 5594 5600 5607 5612 5617 5621 5625 5629 5632 5636 5640 5642 5645 5647 5648 5653 5660 5666 5671 5675 5680 5684 5688 5692 5695 5699 5703 5706 5711 5715 5717 5719 5723 5725 5728 5731 5734 5737 5740 5743 5747 5751 5756 5759 5762 5765 5768 5772 5776 5779 5781 5783 5786 5790 5792 5794 5796 5798 5801 5803 5804 5807 5807 5807 5810 5814 5818 5819 5820 5824 5828 5831 5833 5835 5835 5836 5838 5839 5840 5841 5842 5843 5843 5843
5570 5576 5582 5588 5594 5600 5605 5609 5611 5617 5622 5626 5629 5632 5634 5637 5640 5641 5644 5652 5659 5664 5668 5673 5677 5681 5686 5690 5693 5697 5700 5704 5708 5710 5713 5717 5720 5722 5725 5727 5730 5733 5736 5740 5743 5747 5751 5753 5757 5761 5765 5769 5772 5773 5775 5778 5780 5784 5786 5789 5792 5794 5796 5797 5799 5801 5801 5802 5806 5811 5814 5814 5815 5821 5826 5829 5831 5831 5832 5833 5834 5836 5838 5838 5839 5839 5840 5840
5568 5574 5580 5586 5592 5599 5603 5606 5610 5614 5617 5621 5625 5628 5630 5632 5634 5637 5645 5653 5656 5660 5667 5672 5676 5680 5685 5688 5691 5694 5698 5701 5704 5707 5711 5714 5716 5719 5722 5724 5727 5730 5732 5736 5740 5743 5746 5749 5753 5757 5760 5764 5766 5767 5770 5773 5776 5779 5781 5785 5787 5789 5790 5791 5793 5795 5796 5799 5803 5808 5811 5811 5812 5819 5824 5826 5828 5828 5828 5830 5831 5833 5834 5835 5836 5836 5836 5837
5566 5572 5578 5584 5590 5596 5599 5602 5607 5611 5613 5617 5620 5623 5627 5628 5631 5639 5647 5651 5654 5661 5668 5672 5676 5679 5682 5683 5686 5691 5695 5699 5702 5705 5708 5711 5714 5717 5720 5723 5726 5729 5732 5735 5738 5740 5743 5745 5749 5752 5755 5759 5761 5763 5766 5769 5773 5776 5778 5781 5783 5783 5784 5787 5789 5792 5794 5797 5802 5806 5807 5808 5811 5816 5820 5822 5824 5825 5825 5826 5827 5828 5830 5831 5832 5833 5833 5834
5564 5570 5575 5581 5586 5590 5593 5598 5603 5608 5611 5613 5615 5618 5620 5624 5634 5642 5645 5649 5656 5662 5666 5669 5672 5675 5677 5680 5683 5688 5692 5696 5699 5702 5705 5708 5710 5713 5717 5721 5725 5728 5731 5735 5737 5740 5743 5745 5748 5752 5754 5757 5759 5761 5764 5768 5771 5773 5775 5778 5779 5781 5783 5786 5788 5790 5794 5796 5799 5801 5802 5805 5809 5811 5815 5819 5820 5822 5823 5823 5824 5824 5825 5826 5828 5829 5830 5830
5561 5566 5572 5577 5582 5586 5590 5595 5600 5604 5607 5610 5613 5614 5616 5625 5635 5639 5642 5650 5655 5658 5662 5666 5669 5671 5673 5676 5681 5685 5688 5692 5696 5699 5701 5704 5708 5712 5715 5718 5722 5725 5728 5731 5734 5738 5741 5744 5749 5752 5754 5757 5758 5760 5763 5766 5767 5768 5771 5772 5774 5777 5780 5783 5785 5786 5790 5791 5792 5794 5797 5801 5806 5807 5811 5814 5816 5818 5819 5819 5821 5821 5821 5822 5823 5824 5825 5826
5557 5563 5568 5574 5579 5584 5588 5592 5596 5600 5603 5606 5608 5611 5619 5629 5634 5636 5642 5649 5652 5655 5659 5661 5663 5666 5669 5673 5677 5681 5685 5690 5693 5696 5699 5702 5706 5710 5714 5717 5720 5723 5726 5729 5731 5734 5737 5741 5745 5748 5751 5753 5755 5758 5761 5762 5763 5766 5767 5768 5772 5775 5777 5779 5781 5782 5785 5785 5786 5790 5794 5799 5802 5802 5805 5809 5812 5814 5815 5815 5817 5817 5817 5818 5819 5820 5821 5822
5555 5560 5566 5571 5576 5581 5585 5589 5593 5596 5600 5603 5606 5613 5623 5629 5631 5635 5641 5646 5649 5652 5655 5656 5659 5662 5665 5670 5674 5677 5681 5686 5689 5692 5696 5699 5702 5706 5712 5715 5718 5722 5724 5727 5730 5733 5736 5738 5742 5744 5746 5748 5751 5753 5755 5757 5759 5762 5763 5767 5772 5772 5773 5776 5777 5778 5780 5781 5782 5787 5792 5796 5797 5798 5802 5806 5807 5809 5810 5811 5812 5813 5813 5814 5815 5816 5816 5817
5553 5558 5564 5568 5573 5578 5583 5586 5590 5593 5597 5599 5605 5614 5621 5623 5627 5633 5639 5643 5645 5648 5651 5654 5657 5661 5664 5667 5671 5674 5677 5680 5684 5688 5692 5695 5699 5705 5709 5712 5717 5720 5722 5724 5727 5729 5733 5735 5738 5740 5742 5744 5746 5748 5750 5752 5755 5758 5760 5765 5767 5766 5769 5772 5772 5774 5777 5778 5779 5784 5788 5791 5793 5796 5799 5802 5803 5803 5804 5806 5808 5809 5810 5810 5811 5811 5812 5813
5550 5555 5560 5565 5570 5574 5579 5582 5586 5590 5592 5596 5603 5610 5615 5619 5625 5631 5635 5639 5642 5644 5648 5651 5656 5659 5663 5666 5669 5671 5674 5677 5681 5684 5687 5691 5695 5701 5706 5710 5714 5716 5719 5721 5722 5725 5728 5729 5731 5735 5737 5739 5740 5742 5745 5748 5751 5754 5756 5759 5761 5762 5765 5767 5768 5772 5774 5774 5777 5780 5782 5786 5790 5794 5795 5795 5796 5797 5799 5802 5803 5804 5805 5806 5807 5807 5808 5809
5547 5552 5557 5562 5566 5570 5575 5579 5582 5584 5588 5595 5603 5607 5611 5617 5622 5627 5630 5634 5637 5640 5644 5649 5654 5657 5660 5663 5666 5669 5672 5675 5678 5682 5684 5688 5692 5696 5701 5705 5709 5713 5716 5717 5718 5721 5723 5724 5725 5729 5731 5732 5734 5738 5742 5745 5747 5749 5752 5755 5757 5760 5762 5763 5766 5768 5769 5771 5773 5774 5776 5780 5785 5790 5790 5790 5791 5793 5795 5797 5798 5799 5800 5801 5803 5803 5803 5804
5542 5548 5553 5558 5562 5566 5570 5573 5576 5581 5588 5596 5600 5603 5608 5613 5618 5622 5626 5630 5634 5637 5641 5646 5650 5654 5657 5660 5662 5666 5669 5671 5675 5679 5681 5685 5689 5693 5699 5703 5706 5709 5711 5711 5713 5716 5718 5719 5721 5723 5725 5728 5731 5735 5738 5740 5742 5745 5748 5751 5754 5757 5758 5759 5761 5764 5766 5767 5768 5768 5770 5774 5781 5787 5788 5786 5787 5788 5790 5792 5793 5795 5796 5797 5798 5798 5798 5799
5538 5543 5549 5555 5559 5562 5565 5569 5574 5581 5587 5591 5594 5599 5605 5610 5614 5618 5623 5627 5630 5634 5638 5642 5646 5650 5653 5656 5659 5663 5666 5668 5671 5675 5678 5683 5687 5690 5696 5699 5702 5704 5705 5707 5710 5712 5713 5714 5715 5717 5721 5724 5727 5730 5732 5734 5737 5740 5742 5745 5749 5750 5752 5753 5755 5758 5760 5760 5761 5762 5763 5769 5777 5782 5783 5783 5783 5784 5785 5787 5789 5790 5792 5792 5792 5793 5793 5793
5534 5540 5546 5551 5555 5558 5561 5565 5570 5576 5581 5586 5592 5597 5602 5606 5610 5614 5619 5622 5626 5630 5633 5637 5641 5645 5649 5652 5655 5659 5663 5665 5668 5672 5676 5680 5683 5686 5690 5693 5696 5698 5699 5701 5703 5705 5707 5707 5709 5712 5715 5718 5721 5723 5726 5728 5731 5733 5736 5741 5744 5745 5747 5748 5748 5751 5752 5753 5757 5757 5756 5764 5774 5778 5780 5779 5779 5780 5781 5783 5784 5785 5787 5787 5787 5787 5788 5788
5532 5538 5542 5545 5549 5553 5556 5560 5567 5573 5578 5584 5589 5593 5597 5602 5605 5610 5614 5618 5622 5626 5629 5633 5637 5640 5644 5648 5652 5656 5659 5660 5664 5668 5672 5675 5678 5682 5684 5687 5690 5691 5693 5695 5697 5700 5701 5701 5703 5706 5707 5710 5713 5715 5718 5722 5726 5730 5733 5737 5738 5739 5742 5742 5743 5746 5746 5749 5754 5752 5752 5764 5773 5776 5776 5775 5774 5776 5777 5778 5779 5780 5781 5781 5781 5782 5782 5783
5529 5533 5536 5540 5544 5547 5553 5560 5566 5571 5575 5579 5583 5588 5592 5597 5601 5605 5610 5614 5618 5622 5625 5629 5632 5636 5640 5644 5647 5650 5653 5656 5660 5664 5667 5670 5673 5676 5679 5682 5684 5685 5688 5691 5693 5695 5695 5694 5697 5699 5699 5702 5705 5710 5716 5721 5725 5726 5728 5730 5732 5735 5737 5738 5741 5741 5741 5747 5751 5748 5752 5763 5768 5770 5771 5769 5770 5772 5772 5773 5774 5774 5775 5776 5776 5776 5777 5778
5524 5526 5529 5535 5540 5545 5551 5558 5563 5566 5570 5575 5579 5583 5587 5591 5596 5601 5605 5609 5613 5617 5620 5624 5628 5631 5635 5638 5642 5645 5649 5653 5656 5659 5663 5666 5669 5672 5674 5676 5678 5680 5682 5684 5686 5688 5688 5689 5692 5694 5695 5700 5705 5712 5718 5721 5720 5721 5724 5728 5730 5732 5734 5736 5735 5734 5739 5744 5744 5745 5753 5758 5761 5764 5765 5764 5765 5766 5766 5767 5768 5768 5769 5770 5770 5771 5772 5773
5520 5522 5525 5530 5535 5541 5548 5553 5557 5561 5567 5571 5575 5579 5583 5588 5592 5596 5599 5604 5609 5612 5615 5619 5622 5626 5630 5634 5637 5641 5645 5649 5651 5655 5659 5662 5665 5668 5669 5671 5673 5675 5677 5679 5679 5680 5682 5684 5687 5690 5693 5699 5704 5709 5712 5713 5713 5717 5721 5724 5726 5728 5729 5729 5728 5732 5739 5738 5736 5743 5751 5752 5754 5758 5758 5758 5760 5760 5760 5761 5761 5762 5763 5764 5765 5766 5767 5769
5516 5520 5524 5528 5532 5537 5542 5548 5554 5558 5562 5566 5570 5574 5578 5582 5587 5591 5596 5600 5605 5608 5611 5613 5617 5621 5626 5630 5633 5636 5639 5642 5645 5649 5653 5657 5660 5662 5664 5666 5667 5670 5673 5673 5672 5674 5676 5678 5683 5687 5689 5695 5698 5700 5703 5705 5708 5711 5714 5716 5719 5720 5721 5721 5724 5730 5733 5729 5731 5742 5745 5744 5748 5751 5749 5752 5753 5753 5755 5756 5756 5757 5758 5759 5761 5761 5762 5764
5513 5517 5522 5526 5530 5535 5541 5546 5549 5551 5554 5559 5563 5567 5572 5577 5583 5588 5592 5597 5600 5604 5607 5610 5615 5619 5622 5625 5627 5630 5633 5637 5641 5645 5649 5652 5655 5657 5659 5660 5662 5665 5667 5667 5668 5669 5670 5674 5680 5682 5684 5689 5691 5692 5697 5699 5701 5704 5707 5709 5711 5713 5713 5716 5719 5724 5726 5723 5728 5737 5737 5736 5741 5743 5744 5747 5748 5748 5750 5751 5752 5753 5753 5755 5756 5756 5757 5757
5509 5513 5517 5523 5528 5533 5538 5541 5543 5545 5549 5553 5557 5562 5567 5572 5577 5582 5587 5592 5595 5599 5604 5608 5612 5616 5618 5620 5623 5625 5630 5635 5638 5641 5644 5646 5649 5652 5654 5655 5658 5660 5661 5662 5664 5664 5665 5670 5675 5677 5678 5681 5684 5687 5690 5692 5694 5697 5700 5702 5705 5706 5709 5711 5714 5719 5720 5719 5725 5730 5728 5730 5737 5741 5742 5743 5744 5745 5745 5745 5746 5747 5748 5749 5749 5749 5750 5750
5505 5509 5514 5520 5524 5529 5533 5537 5540 5543 5546 5549 5554 5559 5564 5568 5573 5578 5582 5586 5590 5595 5600 5605 5608 5611 5613 5615 5618 5623 5628 5631 5632 5635 5638 5640 5643 5647 5649 5650 5653 5655 5655 5657 5659 5660 5662 5665 5669 5672 5670 5672 5679 5682 5683 5686 5688 5688 5690 5694 5699 5702 5705 5708 5712 5716 5716 5717 5721 5723 5722 5728 5737 5740 5739 5739 5740 5740 5739 5738 5740 5741 5741 5742 5742 5743 5743 5743
5501 5505 5510 5515 5520 5524 5528 5532 5535 5537 5541 5547 5552 5556 5560 5564 5569 5573 5577 5581 5585 5590 5595 5599 5602 5605 5607 5610 5615 5620 5623 5625 5627 5629 5632 5633 5635 5639 5640 5642 5646 5648 5649 5652 5654 5656 5658 5660 5664 5666 5664 5668 5674 5675 5677 5680 5675 5672 5681 5692 5697 5699 5702 5704 5707 5710 5711 5713 5715 5716 5720 5728 5734 5733 5733 5734 5735 5735 5734 5733 5732 5732 5734 5735 5736 5736 5737 5737